Regional Weather Roundup
Issued by NWS

Home | Current Version | Previous Version | Text Only | Print | Product List | Glossary Off
Versions: 1 2 3 4 5 6 7 8 9 10 11 12 13 14 15 16 17 18 19 20 21 22 23 24 25 26 27 28 29 30 31 32 33 34 35 36 37 38 39 40 41 42 43 44 45 46 47 48 49 50

000
ASUS43 KOAX 251803
RWRNE

WEATHER ROUNDUP FOR NEBRASKA
NATIONAL WEATHER SERVICE OMAHA NE
100 PM CDT FRI MAY 25 2018

NOTES: SATELLITE DATA IS BEING USED TO AUGMENT CLOUD COVER ABOVE
       12000 FEET.
       "FAIR" INDICATES FEW OR NO CLOUDS BELOW 12,000 FEET WITH NO
       SIGNIFICANT WEATHER AND/OR OBSTRUCTIONS TO VISIBILITY.


NEZ001>004-019>022-054>056-251900-
NEBRASKA PANHANDLE

CITY           SKY/WX    TMP DP  RH WIND       PRES   REMARKS
SCOTTSBLUFF    SUNNY     82  56  40 W8        30.00F
6HR MIN TEMP:  51; 6HR MAX TEMP:  82;

ALLIANCE       SUNNY     83  52  34 W7        29.97F
6HR MIN TEMP:  48; 6HR MAX TEMP:  84;

CHADRON        SUNNY     81  58  45 VRB5      29.95S
6HR MIN TEMP:  54; 6HR MAX TEMP:  81;

GORDON         FAIR      83  53  35 NW8       29.95R
6HR MIN TEMP:  50; 6HR MAX TEMP:  83;

KIMBALL        SUNNY     82  45  27 W5        30.06F
SIDNEY         SUNNY     87  45  23 NW13      30.02F
6HR MIN TEMP:  49; 6HR MAX TEMP:  87;

$$

NEZ057>060-069>072-079>082-251900-
SOUTHWEST NEBRASKA

CITY           SKY/WX    TMP DP  RH WIND       PRES   REMARKS
NORTH PLATTE   SUNNY     88  64  44 NW7       29.91F
6HR MIN TEMP:  59; 6HR MAX TEMP:  88;

IMPERIAL       SUNNY     92  43  18 SW12      29.95F
6HR MIN TEMP:  58; 6HR MAX TEMP:  92;

LEXINGTON      SUNNY     87  62  42 W6        29.89F
MCCOOK         SUNNY     87  57  35 VRB3      29.92F
6HR MIN TEMP:  55; 6HR MAX TEMP:  89;

OGALLALA       SUNNY     86  55  34 W12       29.95S
$$

NEZ005>010-023>029-035>040-094-251900-
NORTH CENTRAL NEBRASKA

CITY           SKY/WX    TMP DP  RH WIND       PRES   REMARKS
VALENTINE      SUNNY     87  54  32 NW5       29.88S
6HR MIN TEMP:  58; 6HR MAX TEMP:  88;

AINSWORTH      SUNNY     83  60  46 CALM      29.89S
BROKEN BOW     SUNNY     90  55  30 W12       29.88F
6HR MIN TEMP:  65; 6HR MAX TEMP:  90;

O`NEILL        SUNNY     87  60  39 S6        29.85F
ORD            SUNNY     86  60  41 E6        29.85F
6HR MIN TEMP:  60; 6HR MAX TEMP:  86;

THEDFORD       SUNNY     88  54  31 W6        29.91F
$$

NEZ041-046>049-061>064-073>077-083>087-251900-
SOUTH CENTRAL NEBRASKA

CITY           SKY/WX    TMP DP  RH WIND       PRES   REMARKS
GRAND ISLAND   SUNNY     86  56  35 VRB3      29.87F
6HR MIN TEMP:  63; 6HR MAX TEMP:  88;

AURORA         MOSUNNY   85  54  34 SW7       29.87F
HASTINGS       SUNNY     87  56  34 W12       29.89F
6HR MIN TEMP:  63; 6HR MAX TEMP:  87;

HEBRON         SUNNY     90  55  30 SW7       29.87F
HOLDREGE       SUNNY     85  58  38 W7        29.90F
KEARNEY        SUNNY     88  57  34 SW9       29.89F
YORK           SUNNY     84  57  39 W8        29.87F
$$

NEZ011>018-030>034-042>045-251900-
NORTHEAST NEBRASKA

CITY           SKY/WX    TMP DP  RH WIND       PRES   REMARKS
NORFOLK        SUNNY     89  61  38 CALM      29.80F
6HR MIN TEMP:  63; 6HR MAX TEMP:  89;

ALBION         SUNNY     87  61  40 N5        29.84F
BLAIR          SUNNY     88  61  40 S5        29.82F
COLUMBUS       SUNNY     89  59  36 SW7       29.84F
FREMONT        SUNNY     91  61  36 CALM      29.82F HX  91
TEKAMAH        SUNNY     87  65  47 CALM      29.80F
6HR MIN TEMP:  65; 6HR MAX TEMP:  87;

WAYNE          SUNNY     88  64  43 CALM      29.82F
$$

NEZ050>053-065>068-078-088>093-251900-
SOUTHEAST NEBRASKA

CITY           SKY/WX    TMP DP  RH WIND       PRES   REMARKS
LINCOLN        SUNNY     89  58  34 SW12G18   29.84F
6HR MIN TEMP:  64; 6HR MAX TEMP:  90;

OMAHA EPPLEY   MOSUNNY   88  61  40 S8        29.82F
6HR MIN TEMP:  69; 6HR MAX TEMP:  88;

BEATRICE       SUNNY     84  63  49 SW8       29.87F
FALLS CITY     MOSUNNY   85  61  44 SW8       29.86F
6HR MIN TEMP:  66; 6HR MAX TEMP:  85;

NEBRASKA CITY  SUNNY     86  60  40 SW10G16   29.85F
PLATTSMOUTH    SUNNY     86  62  44 S8        29.84F
$$

NEZ044-045-051>053-067-251900-
OMAHA AREA

CITY           SKY/WX    TMP DP  RH WIND       PRES   REMARKS
OMAHA EPPLEY   MOSUNNY   88  61  40 S8        29.82F
6HR MIN TEMP:  69; 6HR MAX TEMP:  88;

BLAIR          SUNNY     88  61  40 S5        29.82F
FREMONT        SUNNY     91  61  36 CALM      29.82F HX  91
MILLARD        SUNNY     89  61  38 SW9       29.82F
OFFUTT AFB     SUNNY     87  62  42 SW6       29.82F
PLATTSMOUTH    SUNNY     86  62  44 S8        29.84F
WAHOO          FAIR      92  50  24 W6        29.81F
$$



USA.gov is the U.S. government's official web portal to all federal, state and local government web resources and services.